Hourly Weather Dobrich

Today, 30 October, Friday

Time Temperature Precipitation Wind Pressure Humidity
00:00 +15°C° 0 mm 1 mps 739 mmHg 79%
01:00 +15°C° 0 mm 1 mps 739 mmHg 80%
02:00 +14°C° 0 mm 2 mps 740 mmHg 82%
03:00 +14°C° 0 mm 2 mps 739 mmHg 84%
04:00 +14°C° 0 mm 2 mps 739 mmHg 85%
05:00 +14°C° 0 mm 2 mps 739 mmHg 86%
06:00 +14°C° 0.4 mm 2 mps 739 mmHg 86%
07:00 +13°C° 0.4 mm 3 mps 739 mmHg 85%
08:00 +13°C° 0 mm 3 mps 740 mmHg 85%
09:00 +14°C° 0.1 mm 3 mps 740 mmHg 79%
10:00 +14°C° 0.1 mm 4 mps 740 mmHg 73%
11:00 +15°C° 0.1 mm 4 mps 740 mmHg 67%
12:00 +15°C° 0.1 mm 4 mps 739 mmHg 65%
13:00 +15°C° 0.1 mm 5 mps 739 mmHg 62%
14:00 +15°C° 0.1 mm 5 mps 739 mmHg 59%
15:00 +14°C° 0 mm 5 mps 739 mmHg 62%
16:00 +13°C° 0 mm 4 mps 739 mmHg 65%
17:00 +12°C° 0 mm 4 mps 739 mmHg 69%
18:00 +12°C° 0.2 mm 4 mps 739 mmHg 74%
19:00 +12°C° 0.2 mm 5 mps 739 mmHg 80%
20:00 +10°C° 0.2 mm 5 mps 739 mmHg 86%
21:00 +10°C° 0.8 mm 6 mps 740 mmHg 86%
22:00 +10°C° 0.8 mm 7 mps 740 mmHg 87%
23:00 +9°C° 0.8 mm 7 mps 740 mmHg 87%

Tomorrow, 31 October, Saturday

Time Temperature Precipitation Wind Pressure Humidity
00:00 +9°C° 0.3 mm 7 mps 740 mmHg 83%
01:00 +9°C° 0.3 mm 8 mps 740 mmHg 80%
02:00 +9°C° 0.3 mm 8 mps 740 mmHg 76%
03:00 +8°C° 0 mm 7 mps 740 mmHg 75%
04:00 +8°C° 0 mm 7 mps 740 mmHg 75%
05:00 +7°C° 0 mm 6 mps 740 mmHg 74%
06:00 +7°C° 0 mm 6 mps 740 mmHg 75%
07:00 +7°C° 0 mm 6 mps 740 mmHg 75%
08:00 +7°C° 0 mm 5 mps 741 mmHg 75%
09:00 +9°C° 0 mm 5 mps 740 mmHg 67%
10:00 +10°C° 0 mm 5 mps 740 mmHg 59%
11:00 +12°C° 0 mm 5 mps 740 mmHg 51%
12:00 +12°C° 0 mm 4 mps 740 mmHg 54%
13:00 +12°C° 0 mm 4 mps 739 mmHg 56%
14:00 +13°C° 0 mm 4 mps 739 mmHg 59%
15:00 +11°C° 1.7 mm 3 mps 739 mmHg 69%
16:00 +10°C° 1.7 mm 3 mps 739 mmHg 80%
17:00 +9°C° 1.7 mm 2 mps 738 mmHg 90%
18:00 +8°C° 1 mm 3 mps 739 mmHg 89%
19:00 +7°C° 1 mm 4 mps 739 mmHg 88%
20:00 +7°C° 1 mm 4 mps 739 mmHg 87%
21:00 +7°C° 0 mm 5 mps 739 mmHg 85%
22:00 +7°C° 0 mm 5 mps 739 mmHg 83%
23:00 +6°C° 0 mm 5 mps 739 mmHg 82%

Day after tomorrow, 1 November, Sunday

Time Temperature Precipitation Wind Pressure Humidity
00:00 +5°C° 0 mm 6 mps 740 mmHg 82%
01:00 +4°C° 0 mm 6 mps 740 mmHg 82%
02:00 +4°C° 0 mm 6 mps 740 mmHg 83%
03:00 +4°C° 0 mm 6 mps 740 mmHg 80%
04:00 +4°C° 0 mm 6 mps 741 mmHg 77%
05:00 +3°C° 0 mm 6 mps 741 mmHg 75%
06:00 +4°C° 0 mm 6 mps 741 mmHg 75%
07:00 +4°C° 0 mm 6 mps 741 mmHg 75%
08:00 +5°C° 0 mm 7 mps 742 mmHg 76%
09:00 +7°C° 0 mm 6 mps 742 mmHg 69%
10:00 +8°C° 0 mm 6 mps 742 mmHg 62%
11:00 +10°C° 0 mm 6 mps 742 mmHg 55%
12:00 +10°C° 0 mm 6 mps 742 mmHg 52%
13:00 +11°C° 0 mm 6 mps 742 mmHg 49%
14:00 +11°C° 0 mm 6 mps 742 mmHg 47%
15:00 +12°C° 0 mm 5 mps 742 mmHg 51%
16:00 +11°C° 0 mm 4 mps 742 mmHg 55%
17:00 +10°C° 0 mm 3 mps 741 mmHg 59%
18:00 +10°C° 0 mm 3 mps 741 mmHg 62%
19:00 +9°C° 0 mm 2 mps 741 mmHg 65%
20:00 +8°C° 0 mm 2 mps 741 mmHg 68%
21:00 +8°C° 0 mm 2 mps 742 mmHg 71%
22:00 +8°C° 0 mm 2 mps 742 mmHg 73%
23:00 +8°C° 0 mm 2 mps 742 mmHg 75%

2 November, Monday

Time Temperature Precipitation Wind Pressure Humidity
00:00 +7°C° 0 mm 3 mps 742 mmHg 76%
01:00 +7°C° 0 mm 3 mps 741 mmHg 77%
02:00 +7°C° 0 mm 3 mps 741 mmHg 78%
03:00 +7°C° 0 mm 3 mps 741 mmHg 77%
04:00 +7°C° 0 mm 2 mps 741 mmHg 76%
05:00 +7°C° 0 mm 2 mps 741 mmHg 75%
06:00 +7°C° 0 mm 2 mps 741 mmHg 72%
07:00 +7°C° 0 mm 2 mps 741 mmHg 69%
08:00 +8°C° 0 mm 2 mps 741 mmHg 65%
09:00 +10°C° 0 mm 2 mps 742 mmHg 58%
10:00 +12°C° 0 mm 3 mps 742 mmHg 50%
11:00 +13°C° 0 mm 3 mps 742 mmHg 42%
12:00 +14°C° 0 mm 3 mps 742 mmHg 40%
13:00 +16°C° 0 mm 3 mps 742 mmHg 38%
14:00 +16°C° 0 mm 3 mps 741 mmHg 35%
15:00 +14°C° 0 mm 3 mps 741 mmHg 39%
16:00 +14°C° 0 mm 2 mps 741 mmHg 43%
17:00 +13°C° 0 mm 2 mps 741 mmHg 47%
18:00 +12°C° 0 mm 1 mps 741 mmHg 50%
19:00 +11°C° 0 mm 1 mps 742 mmHg 53%
20:00 +10°C° 0 mm 1 mps 742 mmHg 56%
21:00 +10°C° 0 mm 1 mps 742 mmHg 57%
22:00 +10°C° 0 mm 1 mps 742 mmHg 58%
23:00 +10°C° 0 mm 1 mps 742 mmHg 60%

3 November, Tuesday

Time Temperature Precipitation Wind Pressure Humidity
00:00 +9°C° 0 mm 1 mps 742 mmHg 60%
01:00 +9°C° 0 mm 1 mps 742 mmHg 61%
02:00 +9°C° 0 mm 1 mps 742 mmHg 62%
03:00 +9°C° 0 mm 1 mps 742 mmHg 62%
04:00 +8°C° 0 mm 0 mps 742 mmHg 62%
05:00 +7°C° 0 mm 0 mps 742 mmHg 61%
06:00 +8°C° 0 mm 0 mps 742 mmHg 60%
07:00 +9°C° 0 mm 0 mps 742 mmHg 58%
08:00 +9°C° 0 mm 0 mps 742 mmHg 57%
09:00 +12°C° 0 mm 1 mps 742 mmHg 52%
10:00 +13°C° 0 mm 1 mps 742 mmHg 48%
11:00 +14°C° 0 mm 1 mps 742 mmHg 43%
12:00 +15°C° 0 mm 1 mps 742 mmHg 43%
13:00 +16°C° 0 mm 1 mps 742 mmHg 43%
14:00 +16°C° 0 mm 1 mps 742 mmHg 43%
15:00 +15°C° 0 mm 1 mps 742 mmHg 48%
16:00 +15°C° 0 mm 1 mps 742 mmHg 52%
17:00 +14°C° 0 mm 1 mps 742 mmHg 57%
18:00 +14°C° 0 mm 1 mps 742 mmHg 58%
19:00 +13°C° 0 mm 1 mps 742 mmHg 59%
20:00 +13°C° 0 mm 1 mps 742 mmHg 61%
21:00 +13°C° 0 mm 1 mps 742 mmHg 60%
22:00 +13°C° 0 mm 1 mps 742 mmHg 60%
23:00 +13°C° 0 mm 1 mps 742 mmHg 60%

4 November, Wednesday

Time Temperature Precipitation Wind Pressure Humidity
00:00 +13°C° 0 mm 1 mps 742 mmHg 60%
01:00 +13°C° 0 mm 1 mps 742 mmHg 60%
02:00 +12°C° 0 mm 1 mps 742 mmHg 60%
03:00 +12°C° 0 mm 1 mps 742 mmHg 60%
04:00 +12°C° 0 mm 1 mps 742 mmHg 60%
05:00 +12°C° 0 mm 1 mps 742 mmHg 61%
06:00 +12°C° 0 mm 2 mps 743 mmHg 63%
07:00 +12°C° 0 mm 2 mps 743 mmHg 65%
08:00 +12°C° 0 mm 2 mps 743 mmHg 67%
09:00 +12°C° 0 mm 3 mps 744 mmHg 66%
10:00 +13°C° 0 mm 3 mps 744 mmHg 64%
11:00 +14°C° 0 mm 3 mps 744 mmHg 63%
12:00 +14°C° 0 mm 3 mps 745 mmHg 61%
13:00 +14°C° 0 mm 3 mps 745 mmHg 59%
14:00 +14°C° 0 mm 4 mps 745 mmHg 57%
15:00 +13°C° 0 mm 3 mps 745 mmHg 60%
16:00 +13°C° 0 mm 3 mps 745 mmHg 63%
17:00 +13°C° 0 mm 2 mps 745 mmHg 66%
18:00 +12°C° 0 mm 2 mps 745 mmHg 69%
19:00 +10°C° 0 mm 2 mps 746 mmHg 72%
20:00 +10°C° 0 mm 2 mps 746 mmHg 74%
21:00 +9°C° 0 mm 2 mps 746 mmHg 76%
22:00 +9°C° 0 mm 2 mps 746 mmHg 77%
23:00 +9°C° 0 mm 2 mps 746 mmHg 78%
Show more